User: anonymous   Login
Location: Caltech
(34.1382°N, 118.1253°W)
Time: 13:15:47
(UTC-08:00)
Language:

Cosmos 1980 Rocket - Orbit

View from above orbital plane
View from above orbital plane
View from above satellite
View from above satellite

Ground track
Ground track

The orbit data is extracted from the following two-line orbital elements,

1 19650U 88102B   16042.31940205  .00000172  00000-0  11196-3 0  9998
2 19650  71.0019 329.3347 0015648 218.2979 141.7034 14.15731177406371
Epoch (UTC): 11 February 2016 07:39:56
Eccentricity: 0.0015648
inclination: 71.0019°
perigee height: 828 km
apogee height: 851 km
right ascension of ascending node: 329.3347°
argument of perigee: 218.2979°
revolutions per day: 14.15731177
mean anomaly at epoch: 141.7034°
orbit number at epoch: 40637

The dashed part of the orbit path shows where the satellite is in the earth's shadow,  

DLR